Location: Chuathbaluk
(61.5726°N, 159.2454°W)
Time: 14:00:36
(UTC+00:00)

NUDT-PHONESAT - Pass Details

Date: 22 January 2021
Orbit: 480 x 498 km, 97.4° (Epoch: 01 March)

Event Time Altitude Azimuth Distance (km) Brightness Sun altitude
Rises 04:45:05 0° 185° (S) 2,573 ? -16.8°
Reaches altitude 10° 04:47:16 10° 195° (SSW) 1,698 ? -17.0°
Maximum altitude 04:50:40 36° 263° (W) 812 ? -17.4°
Drops below altitude 10° 04:54:06 10° 331° (NNW) 1,719 ? -17.8°
Sets 04:56:20 0° 341° (NNW) 2,610 ? -18.1°
